Regional Weather Roundup
Issued by NWS

Home | Current Version | Previous Version | Text Only | Print | Product List | Glossary Off
Versions: 1 2 3 4 5 6 7 8 9 10 11 12 13 14 15 16 17 18 19 20 21 22 23 24 25 26 27 28 29 30 31 32 33 34 35 36 37 38 39 40 41 42 43 44 45 46 47 48 49 50

182
ASUS43 KIND 261959
RWRIN

WEATHER ROUNDUP FOR INDIANA
NATIONAL WEATHER SERVICE INDIANAPOLIS IN
300 PM EST SUN FEB 26 2017

NOTE: "FAIR" INDICATES FEW OR NO CLOUDS BELOW 12,000 FEET WITH NO
SIGNIFICANT WEATHER AND/OR OBSTRUCTIONS TO VISIBILITY.

* - STATION DOES NOT REPORT WEATHER SUCH AS PRECIPITATION OR FOG.

+ - STATION NOT QUALITY CONTROLLED BY THE NATIONAL WEATHER SERVICE.
    USE DATA WITH CAUTION...ESPECIALLY DEWPOINT AND RELATIVE
    HUMIDITY OBSERVATIONS.

INZ001>003-010>013-019-020-262100-
NORTHWEST INDIANA

CITY           SKY/WX    TMP DP  RH WIND       PRES   REMARKS
GARY /AIRPORT/ MOSUNNY   48  12  23 SW28G41   29.97F
KNOX *+        MOSUNNY   45 -11   9 SW22G35   29.99F

$$

LMZ046-743>745-262100-
SOUTHERN LAKE MICHIGAN

STATION/POSITION TIME  TEMP    WIND        PRES    WAVE
                       AIR SEA DIR/SP/G            HT
                 (UTC) (F)     (DEG/KT/KT) (MB)    (FT)
BURNS HARBOR     1940   44     210/ 28/ 34 1014.6F
MICHIGAN CITY    1930   43     190/ 29/ 35   N/A

$$

INZ004-005-014>016-021>024-262100-
NORTH CENTRAL INDIANA

CITY           SKY/WX    TMP DP  RH WIND       PRES   REMARKS
GOSHEN         SUNNY     44  21  40 SW22G29   30.00F
SOUTH BEND     SUNNY     45  20  36 SW18G32   29.98F

$$

INZ006>009-017-018-025>027-262100-
NORTHEAST INDIANA

CITY           SKY/WX    TMP DP  RH WIND       PRES   REMARKS
ANGOLA *+      MOSUNNY   41  27  56 SW18      29.99F
FORT WAYNE     MOSUNNY   41  22  46 SW18G26   30.05F
KENDALLVILLE + PTSUNNY   41  21  45 SW24G32   30.01F

$$

INZ028-029-035-036-043>045-051>053-262100-
WEST CENTRAL INDIANA

CITY           SKY/WX    TMP DP  RH WIND       PRES   REMARKS
LAFAYETTE      SUNNY     46  18  32 SW18G28   30.05F
TERRE HAUTE    MOSUNNY   47  13  25 S13G22    30.11F

$$

INZ030>032-037>040-046>048-054>057-064-065-262100-
CENTRAL INDIANA

CITY           SKY/WX    TMP DP  RH WIND       PRES   REMARKS
COLUMBUS       SUNNY     46  16  29 SW15      30.14F
GREENWOOD *+   SUNNY     46  15  28 SW13G20   30.11F
INDIANAPOLIS   PTSUNNY   45  13  27 SW18      30.10F
-EAGLE CREEK   SUNNY     46  12  25 SW16G26   30.09F
KOKOMO +       SUNNY     44  23  43 S20G29    30.06F
MT COMFORT *+  SUNNY     46  14  27 SW14G22   30.10F
SHELBYVILLE    SUNNY     48  16  27 S16       30.10F

$$

INZ033-034-041-042-049-050-058-059-262100-
EAST CENTRAL INDIANA

CITY           SKY/WX    TMP DP  RH WIND       PRES   REMARKS
MUNCIE         SUNNY     45  18  34 SW17G24   30.08F

$$

INZ060-061-067>069-081>083-085>088-262100-
SOUTHWEST INDIANA

CITY           SKY/WX    TMP DP  RH WIND       PRES   REMARKS
EVANSVILLE     SUNNY     51  13  21 S8        30.14F
HUNTINGBURG *+ SUNNY     48  14  25 S13       30.15F

$$

INZ062-063-066-070>080-084-089>092-262100-
SOUTH CENTRAL AND SOUTHEAST INDIANA

CITY           SKY/WX    TMP DP  RH WIND       PRES   REMARKS
BLOOMINGTON    MOSUNNY   48  12  23 SW16G22   30.12F
MADISON *+     SUNNY     45  12  26 S12       30.17F
SEYMOUR +      SUNNY     50  21  32 SW13      30.14F

$$





USA.gov is the U.S. government's official web portal to all federal, state and local government web resources and services.